This demonstration page uses our WeatherBlox Daily Observations layout. Learn more.

Left ArrowRight Arrow

44.89941, -97.11507

Hourly Observations for June 28, 2016

Temp ( °F °C ) Dew Point ( °F °C ) Humidity (%) Winds ( mph kmh ) Pressure ( in mb ) Visibility ( mi km ) Precip ( " mm )
12:53 am 00:53 Clear 57 13.9 52 11.1 83 83 N 5 7 30.26 1025 10 16 0.00 0.00
1:53 am 01:53 Clear 55 12.8 50 10 83 83 N 5 7 30.25 1025 10 16 0.00 0.00
2:53 am 02:53 Clear 53 11.7 49 9.4 86 86 Calm 30.25 1024 10 16 0.00 0.00
3:53 am 03:53 Clear 53 11.7 48 8.9 83 83 Calm 30.25 1025 10 16 0.00 0.00
4:53 am 04:53 Clear 52 11.1 47 8.3 83 83 Calm 30.25 1024 10 16 0.00 0.00
5:53 am 05:53 Sunny 52 11.1 47 8.3 83 83 N 3 6 30.26 1025 10 16 0.00 0.00
6:53 am 06:53 Sunny 53 11.7 48 8.9 83 83 N 5 7 30.26 1025 10 16 0.00 0.00
7:53 am 07:53 Sunny 61 16.1 51 10.6 70 70 Calm 30.26 1025 10 16 0.00 0.00
8:53 am 08:53 Sunny 66 18.9 51 10.6 59 59 E 6 9 30.27 1025 10 16 0.00 0.00
9:53 am 09:53 Sunny 67 19.4 50 10 55 55 S 3 6 30.28 1025 10 16 0.00 0.00
10:53 am 10:53 Partly Cloudy 70 21.1 48 8.9 46 46 Calm 30.26 1025 10 16 0.00 0.00
11:53 am 11:53 Mostly Cloudy 73 22.8 49 9.4 43 43 undefined N/A 30.25 1025 10 16 0.00 0.00
12:53 pm 12:53 Sunny 74 23.3 49 9.4 41 41 Calm 30.24 1024 10 16 0.00 0.00
1:53 pm 13:53 Partly Cloudy 75 23.9 49 9.4 40 40 undefined N/A 30.22 1024 10 16 0.00 0.00
2:53 pm 14:53 Sunny 76 24.4 50 10 40 40 VRB 6 9 30.20 1023 10 16 0.00 0.00
3:53 pm 15:53 Sunny 79 26.1 49 9.4 35 35 N 6 9 30.18 1022 10 16 0.00 0.00
4:53 pm 16:53 Mostly Sunny 79 26.1 49 9.4 35 35 VRB 6 9 30.16 1021 10 16 0.00 0.00
5:53 pm 17:53 Sunny 79 26.1 49 9.4 35 35 VRB 6 9 30.14 1021 10 16 0.00 0.00
6:53 pm 18:53 Sunny 79 26.1 50 10 36 36 W 6 9 30.11 1020 10 16 0.00 0.00
7:53 pm 19:53 Partly Cloudy 78 25.6 46 7.8 32 32 N 12 19 30.09 1019 10 16 0.00 0.00
8:53 pm 20:53 Mostly Cloudy 74 23.3 49 9.4 41 41 NNW 6 9 30.09 1019 10 16 0.00 0.00
9:53 pm 21:53 Clear 70 21.1 53 11.7 55 55 E 9 15 30.09 1019 10 16 0.00 0.00
10:53 pm 22:53 Clear 68 20 52 11.1 57 57 ESE 7 11 30.11 1020 10 16 0.00 0.00
11:53 pm 23:53 Clear 67 19.4 52 11.1 59 59 ESE 7 11 30.14 1021 10 16 0.00 0.00

Powered by AerisWeather